| time (UTC) | temp F | wind direction | speed MPH | gust MPH | rain 1hr in | rain 24hr in | rain mn in | humidity % | barometer mb |
| 20260505170043 | 81 | 222 | 9.0 | 15.0 | 0.00 | 0.00 | 0.00 | 60 | 1005.7 |
| 20260505164542 | 80 | 221 | 6.0 | 14.0 | 0.00 | 0.00 | 0.00 | 64 | 1005.8 |
| 20260505163037 | 79 | 220 | 5.0 | 12.0 | 0.00 | 0.00 | 0.00 | 71 | 1005.8 |
| 20260505161542 | 77 | 252 | 7.0 | 12.0 | 0.00 | 0.00 | 0.00 | 71 | 1005.7 |
| 20260505153025 | 74 | 207 | 8.0 | 13.0 | 0.00 | 0.00 | 0.00 | 79 | 1005.6 |
| 20260505151523 | 74 | 200 | 6.0 | 12.0 | 0.00 | 0.00 | 0.00 | 80 | 1005.6 |
| 20260505124516 | 68 | 207 | 8.0 | 15.0 | 0.00 | 0.00 | 0.00 | 88 | 1004.9 |
| 20260505123009 | 67 | 211 | 6.0 | 14.0 | 0.00 | 0.00 | 0.00 | 87 | 1004.9 |
| 20260505121610 | 67 | 215 | 9.0 | 13.0 | 0.00 | 0.00 | 0.00 | 87 | 1004.8 |
| 20260505120007 | 67 | 236 | 8.0 | 15.0 | 0.00 | 0.00 | 0.00 | 87 | 1004.7 |
| 20260505114506 | 67 | 227 | 5.0 | 8.0 | 0.00 | 0.00 | 0.00 | 87 | 1004.5 |
| 20260505113005 | 67 | 212 | 5.0 | 10.0 | 0.00 | 0.00 | 0.00 | 87 | 1004.3 |
| 20260505111505 | 67 | 214 | 5.0 | 12.0 | 0.00 | 0.00 | 0.00 | 86 | 1004.1 |
| 20260505101600 | 67 | 211 | 7.0 | 13.0 | 0.00 | 0.00 | 0.00 | 84 | 1004.0 |
| 20260505100056 | 68 | 203 | 8.0 | 17.0 | 0.00 | 0.00 | 0.00 | 83 | 1003.8 |
| 20260505094609 | 68 | 207 | 9.0 | 16.0 | 0.00 | 0.00 | 0.00 | 82 | 1004.0 |
| 20260505093057 | 68 | 226 | 8.0 | 16.0 | 0.00 | 0.00 | 0.00 | 82 | 1003.8 |
| 20260505091554 | 68 | 208 | 7.0 | 16.0 | 0.00 | 0.00 | 0.00 | 81 | 1003.8 |
| 20260505090048 | 69 | 219 | 8.0 | 19.0 | 0.00 | 0.00 | 0.00 | 81 | 1004.1 |
| 20260505084553 | 69 | 216 | 8.0 | 16.0 | 0.00 | 0.00 | 0.00 | 81 | 1004.4 |
| 20260505083055 | 69 | 236 | 8.0 | 14.0 | 0.00 | 0.00 | 0.00 | 81 | 1004.2 |
| 20260505081550 | 69 | 195 | 8.0 | 13.0 | 0.00 | 0.00 | 0.00 | 80 | 1004.4 |
| 20260505080046 | 69 | 229 | 9.0 | 17.0 | 0.00 | 0.00 | 0.00 | 80 | 1004.3 |
| 20260505074536 | 69 | 221 | 10.0 | 19.0 | 0.00 | 0.00 | 0.00 | 79 | 1004.8 |
| 20260505073036 | 70 | 221 | 10.0 | 17.0 | 0.00 | 0.00 | 0.00 | 78 | 1004.8 |
| 20260505071543 | 70 | 221 | 9.0 | 19.0 | 0.00 | 0.00 | 0.00 | 78 | 1005.1 |
| 20260505070029 | 70 | 234 | 8.0 | 16.0 | 0.00 | 0.00 | 0.00 | 77 | 1005.2 |
| 20260505064533 | 70 | 215 | 10.0 | 17.0 | 0.00 | 0.00 | 0.00 | 77 | 1005.3 |
| 20260505063025 | 70 | 189 | 11.0 | 19.0 | 0.00 | 0.00 | 0.00 | 77 | 1005.5 |
| 20260505061521 | 71 | 217 | 10.0 | 21.0 | 0.00 | 0.00 | 0.00 | 76 | 1005.6 |
| 20260505060032 | 71 | 212 | 12.0 | 26.0 | 0.00 | 0.00 | 0.00 | 75 | 1005.5 |
| 20260505054517 | 71 | 212 | 12.0 | 21.0 | 0.00 | 0.00 | 0.00 | 75 | 1005.6 |
| 20260505053017 | 72 | 206 | 11.0 | 22.0 | 0.00 | 0.00 | 0.00 | 74 | 1005.6 |
| 20260505051512 | 72 | 188 | 11.0 | 19.0 | 0.00 | 0.00 | 0.00 | 73 | 1005.6 |
| 20260505041509 | 74 | 209 | 8.0 | 15.0 | 0.00 | 0.00 | 0.00 | 71 | 1005.6 |
| 20260505040007 | 74 | 193 | 9.0 | 17.0 | 0.00 | 0.00 | 0.00 | 70 | 1005.5 |
| 20260505034506 | 74 | 209 | 10.0 | 15.0 | 0.00 | 0.00 | 0.00 | 69 | 1005.5 |
| 20260505033006 | 75 | 192 | 9.0 | 16.0 | 0.00 | 0.00 | 0.00 | 67 | 1005.2 |
| 20260505031505 | 75 | 200 | 9.0 | 17.0 | 0.00 | 0.00 | 0.00 | 66 | 1005.3 |
| 20260505030004 | 76 | 183 | 7.0 | 16.0 | 0.00 | 0.00 | 0.00 | 64 | 1005.0 |
| 20260505024505 | 77 | 205 | 8.0 | 14.0 | 0.00 | 0.00 | 0.00 | 62 | 1005.0 |
| 20260505023003 | 77 | 215 | 10.0 | 17.0 | 0.00 | 0.00 | 0.00 | 61 | 1004.8 |
| 20260505021502 | 78 | 211 | 7.0 | 14.0 | 0.00 | 0.00 | 0.00 | 60 | 1004.8 |
| 20260505020001 | 78 | 231 | 8.0 | 13.0 | 0.00 | 0.00 | 0.00 | 59 | 1004.9 |
| 20260505014500 | 79 | 232 | 7.0 | 15.0 | 0.00 | 0.00 | 0.00 | 58 | 1004.8 |
| 20260505013101 | 80 | 212 | 5.0 | 12.0 | 0.00 | 0.00 | 0.00 | 56 | 1005.0 |
| 20260505011601 | 80 | 234 | 7.0 | 13.0 | 0.00 | 0.00 | 0.00 | 54 | 1005.0 |
| 20260505010059 | 81 | 240 | 8.0 | 16.0 | 0.00 | 0.00 | 0.00 | 54 | 1005.0 |
| 20260505004559 | 82 | 219 | 6.0 | 15.0 | 0.00 | 0.00 | 0.00 | 52 | 1005.0 |
| 20260505003058 | 82 | 231 | 9.0 | 17.0 | 0.00 | 0.00 | 0.00 | 51 | 1005.0 |
| 20260505001600 | 83 | 210 | 8.0 | 17.0 | 0.00 | 0.00 | 0.00 | 50 | 1004.9 |
| 20260505000058 | 84 | 252 | 7.0 | 15.0 | 0.00 | 0.00 | 0.00 | 49 | 1005.1 |
| 20260504234555 | 84 | 216 | 9.0 | 17.0 | 0.00 | 0.00 | 0.00 | 48 | 1005.2 |
| 20260504233056 | 85 | 197 | 7.0 | 18.0 | 0.00 | 0.00 | 0.00 | 47 | 1005.3 |
| 20260504231557 | 86 | 221 | 7.0 | 17.0 | 0.00 | 0.00 | 0.00 | 47 | 1005.1 |
| 20260504230054 | 86 | 227 | 8.0 | 17.0 | 0.00 | 0.00 | 0.00 | 46 | 1005.4 |
| 20260504224552 | 86 | 220 | 11.0 | 20.0 | 0.00 | 0.00 | 0.00 | 45 | 1005.6 |
| 20260504223052 | 86 | 211 | 9.0 | 16.0 | 0.00 | 0.00 | 0.00 | 45 | 1005.6 |
| 20260504221552 | 86 | 240 | 9.0 | 21.0 | 0.00 | 0.00 | 0.00 | 46 | 1005.6 |
| 20260504220050 | 86 | 208 | 8.0 | 17.0 | 0.00 | 0.00 | 0.00 | 45 | 1005.7 |
| 20260504214555 | 86 | 244 | 12.0 | 23.0 | 0.00 | 0.00 | 0.00 | 44 | 1005.9 |
| 20260504213047 | 87 | 237 | 10.0 | 18.0 | 0.00 | 0.00 | 0.00 | 46 | 1006.1 |
| 20260504211544 | 86 | 257 | 10.0 | 16.0 | 0.00 | 0.00 | 0.00 | 45 | 1006.4 |
| 20260504210054 | 86 | 209 | 8.0 | 14.0 | 0.00 | 0.00 | 0.00 | 46 | 1006.7 |
| 20260504204553 | 86 | 212 | 8.0 | 16.0 | 0.00 | 0.00 | 0.00 | 48 | 1007.1 |
| 20260504203041 | 86 | 200 | 7.0 | 15.0 | 0.00 | 0.00 | 0.00 | 47 | 1007.2 |
| 20260504201533 | 85 | 193 | 7.0 | 15.0 | 0.00 | 0.00 | 0.00 | 47 | 1007.4 |
| 20260504200031 | 85 | 222 | 9.0 | 18.0 | 0.00 | 0.00 | 0.00 | 49 | 1007.5 |
| 20260504194529 | 84 | 245 | 9.0 | 20.0 | 0.00 | 0.00 | 0.00 | 50 | 1007.9 |
| 20260504193027 | 84 | 212 | 6.0 | 14.0 | 0.00 | 0.00 | 0.00 | 50 | 1008.0 |
| 20260504191524 | 83 | 234 | 8.0 | 14.0 | 0.00 | 0.00 | 0.00 | 50 | 1008.3 |
| 20260504190022 | 83 | 207 | 6.0 | 16.0 | 0.00 | 0.00 | 0.00 | 53 | 1008.7 |
| 20260504184518 | 81 | 252 | 7.0 | 15.0 | 0.00 | 0.00 | 0.00 | 54 | 1008.9 |
| 20260504183015 | 81 | 242 | 8.0 | 21.0 | 0.00 | 0.00 | 0.00 | 54 | 1009.2 |
| 20260504181511 | 79 | 225 | 8.0 | 17.0 | 0.00 | 0.00 | 0.00 | 56 | 1009.6 |
| 20260504180008 | 79 | 215 | 8.0 | 12.0 | 0.00 | 0.00 | 0.00 | 59 | 1009.8 |
| 20260504174508 | 78 | 150 | 8.0 | 17.0 | 0.00 | 0.00 | 0.00 | 58 | 1010.0 |
| 20260504173003 | 77 | 205 | 9.0 | 18.0 | 0.00 | 0.00 | 0.00 | 61 | 1010.1 |
| 20260504171612 | 77 | 207 | 9.0 | 17.0 | 0.00 | 0.00 | 0.00 | 61 | 1010.4 |